map of ATZ home
Great Circle Mapper logo
ATZ - Airport
Location
City:  Assiut, Al Wadi al Jadid (New Valley), Egypt
ICAO:HEAT
IATA:ATZ

Details
Type:Airport (Aerodrome, Airfield)
Use:Public/Civil, International (customs port of entry)
Latitude:2702'47"N (27.046508)
Longitude:3100'43"E (31.011983)
Datum:WGS 1984
Elevation:772 ft (235 m)
Variation:4.03E (WMM2015 magnetic declination)
0.08 annual change
Runways:1
Longest:9905 × 148 ft (3019 × 45 m), paved

Time
Time Zone:UTC+2 (DST+3)

Weather
METAR:HEAT 260200Z 02004KT CAVOK 24/14 Q1010 NOSIG
TAF:HEAT 251700Z 2518/2624 34008G18KT CAVOK

Related Locations
Nearby:
Farthest:RVV: 12199 mi / 19632 km
Raivavae, Tubuai Islands, Austral Islands, PF

Find:

   beyond  
but within

Other Information
Maps:
NOTAMs:
Links:
Sources:

  
flag of Egypt
flag of Al Wadi al Jadid (New Valley)
  

Sectional Chart

Flight Planning
at skyvector.com

Satellite Image

Google Maps Satellite view

 

Copyright © 2004-2016 Karl L. Swartz. All rights reserved.
The Great Circle Mapper name and logo are trademarks of the Great Circle Mapper.
All other trademarks mentioned herein belong to their respective owners.
Please see credits for attibutions and further copyright information.

  Follow gcmap on Facebook Follow gcmap on Twitter Follow gcmap on Google+ GCmap on LinkedIn

hCard Microformat

Geo Microformat